Vorticity
nan nan nan nan nan nan nan nan nan nan nan nan nan nan nan nan nan nan nan nan nan nan nan nan nan nan nan nan nan nan nan nan nan nan nan nan nan nan nan nan nan nan nan nan nan nan nan nan nan
nan 8 6 8 8 4 8 10 9 5 9 2 12 8 7 6 7 7 9 12 16 10 7 7 4 4 5 5 6 7 6 5 6 6 5 4 4 6 5 5 5 5 4 4 6 4 5 5 nan
nan 9 8 7 6 4 1 7 6 10 7 -1 9 10 11 3 -2 1 9 13 8 11 7 10 7 5 5 5 6 7 6 5 6 6 6 5 5 5 4 8 7 5 5 5 5 4 5 5 nan
nan 5 4 6 4 3 -2 -0 11 17 4 4 -3 8 8 4 13 10 10 11 7 6 8 8 7 6 5 6 6 6 6 6 5 6 6 5 6 5 5 7 7 7 6 6 5 5 5 5 nan
nan 7 7 8 3 -2 4 8 10 6 5 9 2 1 5 6 12 13 10 11 9 0 9 7 6 6 6 6 6 6 7 7 6 7 6 6 5 5 7 6 5 5 6 6 6 6 6 5 nan
nan 5 7 4 6 7 7 5 5 8 10 5 5 6 3 4 6 5 5 8 6 5 7 8 5 6 6 7 6 7 8 7 7 7 7 7 4 5 7 5 5 6 6 6 5 6 5 5 nan
nan 4 -0 2 7 5 7 8 8 7 7 7 8 4 9 8 4 7 0 4 8 7 6 7 5 2 7 9 7 9 9 8 8 7 6 5 5 6 6 5 6 6 5 6 6 6 6 5 nan
nan 7 8 8 7 7 7 6 9 8 6 7 10 7 5 5 12 15 6 4 6 4 8 6 8 6 5 5 7 10 9 9 7 5 6 4 5 6 5 4 7 7 6 6 6 6 6 4 nan
nan 9 10 6 4 8 9 10 7 8 11 8 6 8 -1 6 9 14 12 3 4 10 9 6 7 9 6 6 5 7 6 4 4 3 6 6 8 6 1 3 8 9 7 6 6 6 3 1 nan
nan 5 2 3 7 8 9 10 7 8 12 11 2 5 3 -11 2 20 16 5 1 8 5 5 9 9 4 7 8 4 2 2 3 7 3 5 7 5 3 3 3 4 6 6 5 5 3 0 nan
nan -1 4 7 7 6 6 8 10 11 5 8 13 6 2 -1 -2 18 24 7 5 2 3 8 9 8 3 2 3 5 6 6 9 8 4 7 4 5 5 4 4 5 3 5 5 3 5 6 nan
nan 4 3 4 6 8 8 7 7 7 7 6 6 11 15 12 -6 3 14 18 14 2 6 13 9 9 4 2 6 7 6 6 8 9 6 4 8 5 6 6 7 5 5 7 4 5 8 8 nan
nan 7 7 7 9 8 9 8 9 7 8 8 5 1 7 7 12 2 5 3 19 19 8 5 3 11 9 3 4 5 6 9 8 9 9 6 7 6 5 6 7 7 8 6 5 7 7 7 nan
nan 5 7 11 10 7 10 7 9 9 9 5 7 8 4 7 6 -5 2 9 13 18 21 7 8 7 7 7 7 2 6 7 7 7 9 8 6 8 6 6 8 7 7 7 7 8 6 7 nan
nan 9 10 9 9 9 11 11 9 8 11 11 6 7 9 6 10 7 -8 7 8 17 18 14 14 7 9 6 6 5 8 8 7 10 8 4 8 8 7 6 7 9 9 7 6 7 7 6 nan
nan 11 8 9 10 18 13 9 12 15 11 11 11 4 7 9 11 13 -0 2 7 19 19 9 5 7 11 5 5 8 8 8 8 9 9 9 7 6 5 8 9 8 8 7 7 7 7 8 nan
nan 7 4 8 14 22 8 5 10 11 15 15 10 8 3 7 10 11 10 8 12 13 17 9 6 9 7 6 8 10 7 6 8 8 10 11 8 5 5 8 10 8 7 7 7 8 7 7 nan
nan 5 6 8 8 5 4 13 14 15 16 13 12 11 6 8 10 9 6 14 14 6 17 11 8 10 5 5 6 7 9 8 8 8 11 9 8 7 5 8 9 7 7 7 8 7 7 8 nan
nan 3 3 5 7 6 8 7 16 11 11 14 13 10 10 11 6 8 6 9 13 12 12 13 10 5 2 7 6 8 8 8 8 10 11 8 7 8 6 8 9 7 7 8 7 8 8 6 nan
nan 8 6 7 11 9 7 10 14 14 9 10 9 10 10 7 8 4 5 14 11 8 10 10 9 6 3 6 9 9 8 7 7 9 10 10 8 7 7 8 7 7 7 9 7 6 5 8 nan
nan 9 8 6 9 16 22 21 13 14 11 3 4 11 12 11 7 5 5 14 12 3 9 7 11 7 7 6 6 9 8 9 9 8 8 10 9 8 7 7 8 8 8 8 8 7 7 7 nan
nan 17 16 11 13 20 15 18 23 11 9 6 10 10 14 11 5 7 7 12 13 6 9 15 10 5 11 6 8 7 6 8 6 8 10 10 10 8 8 8 8 7 9 10 8 8 9 9 nan
nan 10 18 18 15 16 10 4 21 16 4 10 14 13 16 13 8 7 10 13 11 9 11 19 15 7 7 7 6 7 6 7 9 11 9 8 10 10 8 8 9 8 8 10 9 7 8 9 nan
nan 11 15 13 11 18 17 9 5 15 13 14 15 14 9 14 17 15 12 11 12 7 5 10 21 23 11 11 8 8 9 8 7 9 8 9 9 10 10 8 7 8 10 9 8 5 6 8 nan
nan 13 18 14 8 10 12 11 3 11 17 19 11 9 12 16 18 18 14 11 13 10 5 1 9 19 12 12 10 9 9 11 13 10 7 9 8 9 9 8 9 7 8 7 7 7 9 10 nan
nan 13 7 7 14 6 7 7 2 16 21 9 4 6 9 9 13 20 19 14 13 9 8 6 4 4 8 10 9 9 7 7 8 11 12 8 9 9 9 8 9 8 6 7 7 7 9 10 nan
nan 8 9 14 11 6 9 11 -1 5 15 6 7 11 9 7 12 21 19 17 13 9 9 8 9 8 6 5 7 6 8 5 9 8 9 7 9 12 10 9 10 9 10 6 5 10 11 11 nan
nan 10 14 8 7 9 9 9 6 7 11 6 7 12 7 7 10 16 21 21 13 12 10 11 9 10 8 10 8 7 8 8 7 6 6 8 10 11 9 7 9 11 11 11 10 10 9 9 nan
nan 9 10 9 9 8 11 5 7 15 13 7 9 8 6 9 11 14 18 18 12 14 12 12 11 14 12 8 8 9 8 9 10 11 8 9 8 10 10 10 8 8 9 10 10 10 9 8 nan
nan nan nan nan nan nan nan nan nan nan nan nan nan nan nan nan nan nan nan nan nan nan nan nan nan nan nan nan nan nan nan nan nan nan nan nan nan nan nan nan nan nan nan nan nan nan nan nan nan
CAPE
0 0 0 9 8 0 0 0 0 0 0 0 0 1 6 141 197 645 825 1082 946 1228 1076 1252 1799 1890 1881 2312 2365 2323 2201 2160 1988 1600 1472 1025 822 630 882 923 874 830 360 165 421 390 358 336 285
5 0 0 0 0 0 0 0 0 0 0 0 0 0 0 5 330 1031 780 1003 1041 1208 1162 995 1583 1831 1924 2041 2445 2292 2185 2135 1989 1725 1409 1374 1147 1068 806 1203 1291 1064 774 570 406 391 398 291 124
0 0 0 0 0 0 0 0 0 0 1 0 0 0 0 0 183 734 1175 1135 1117 1263 1332 1149 1476 1583 1880 1894 2240 2299 2123 2046 1975 1707 1414 1290 1262 994 1004 870 823 681 677 423 192 213 203 141 9
3 5 0 0 0 0 0 0 0 0 6 0 0 0 0 0 84 514 1069 1122 1122 1281 1194 1258 1449 1361 1741 1691 1945 2258 2085 1904 1749 1450 1245 1033 1092 1070 871 960 816 631 733 344 9 8 8 5 2
1 9 5 0 0 0 0 0 0 0 4 9 0 0 0 0 1079 1172 1219 1224 1173 1248 1210 1232 1562 1572 1809 1786 1674 2016 2019 1783 1600 1372 1193 1144 1060 1018 1038 982 781 695 543 173 4 1 0 0 0
15 0 0 0 0 0 0 0 0 0 1 13 0 3 0 3 944 1336 1349 1302 1182 1184 1408 1284 1202 1335 1645 1786 1604 2014 1817 1587 1365 1182 1074 1029 800 921 1065 873 791 617 261 1 0 0 0 0 0
4 9 0 0 0 0 0 0 0 0 0 1 12 2 0 6 626 1459 1104 1438 1351 1293 1223 1253 1095 934 1493 1581 1673 1768 1620 1334 956 948 835 560 542 643 919 721 666 669 319 53 0 0 0 0 0
13 10 0 0 0 0 0 0 0 0 0 0 24 21 17 2 219 1265 1264 1502 1164 1336 1046 1186 963 640 810 1472 1232 1226 1128 826 640 512 171 39 87 281 633 309 453 469 305 118 1 0 0 0 0
6 19 12 1 0 0 0 0 0 0 0 0 5 19 61 129 77 550 1052 1332 1075 1150 973 1010 740 263 435 1121 1067 754 686 439 169 2 0 7 7 41 186 21 174 295 299 202 80 20 0 0 0
17 11 1 0 0 0 0 0 0 7 16 3 1 3 69 73 58 301 799 875 1178 1166 878 857 556 78 292 916 1055 931 760 425 50 1 0 1 1 91 264 28 66 180 202 202 123 28 0 0 0
17 21 6 6 4 5 7 3 3 10 20 19 38 0 35 81 135 129 771 908 219 623 837 684 535 31 185 733 1017 814 687 218 23 0 5 0 1 123 204 77 10 9 5 39 22 0 0 2 0
18 22 14 8 7 13 23 22 5 4 3 0 27 31 29 80 134 52 28 305 616 104 371 248 254 22 42 484 749 597 543 146 4 5 0 0 7 210 129 91 24 3 0 0 0 0 0 0 0
13 6 8 5 4 7 8 9 0 3 2 14 31 29 59 69 30 74 0 0 4 171 71 213 36 72 11 260 568 568 202 53 140 113 0 6 18 47 72 70 94 34 36 0 0 0 0 0 0
14 17 12 5 16 18 22 16 17 10 0 0 10 29 8 28 0 17 0 0 0 42 257 20 183 317 25 14 358 572 243 107 32 13 11 15 18 30 83 79 182 99 53 2 0 0 0 0 0
9 11 9 3 3 2 14 37 7 0 4 2 11 15 4 56 18 38 1 0 0 3 406 137 251 126 38 7 9 26 146 34 8 9 19 15 19 67 149 136 121 72 26 0 0 0 0 0 0
25 27 23 0 7 0 28 15 0 0 10 4 0 52 47 14 36 15 20 0 3 42 197 272 193 177 69 13 20 17 18 17 8 5 22 32 19 55 59 74 44 12 0 0 0 0 0 18 55
18 32 9 7 1 20 64 104 17 0 20 0 0 0 8 11 24 0 40 0 24 0 42 256 300 189 334 302 113 16 3 10 5 4 13 15 12 12 18 8 3 0 0 0 0 0 8 98 86
36 42 29 31 27 73 80 45 48 51 54 4 0 1 7 15 0 1 9 30 40 59 14 54 341 334 465 426 207 100 3 1 7 7 3 6 3 0 1 0 0 0 1 35 59 66 102 111 131
40 35 29 9 11 23 1 1 46 83 138 88 57 135 53 79 0 1 3 81 47 83 7 110 443 395 490 307 292 290 135 10 0 0 0 0 0 0 0 0 0 18 66 72 69 112 142 172 124
6 13 1 3 11 11 11 11 37 61 155 168 134 89 79 28 1 4 0 37 1 48 31 15 423 511 410 261 315 405 692 512 291 69 0 0 0 0 0 36 74 108 144 108 201 273 317 349 314
5 14 5 2 0 16 14 54 7 30 90 108 94 56 44 13 12 1 0 0 21 0 80 43 85 424 379 340 434 458 452 551 506 456 447 257 178 185 167 190 152 249 256 334 418 357 427 383 398
30 2 14 18 21 35 24 83 24 28 14 75 61 18 28 7 7 0 0 0 28 0 0 167 131 248 429 487 325 334 319 339 334 330 246 206 210 346 344 355 330 368 376 410 376 420 624 531 190
4 1 23 51 28 30 33 17 37 17 9 1 24 55 57 40 0 0 0 0 162 31 38 114 141 209 386 331 389 512 401 316 247 423 272 207 170 166 210 155 131 171 330 450 415 222 69 41 130
15 23 16 5 17 38 38 19 16 19 7 16 44 56 22 17 7 0 0 0 238 111 96 59 55 86 353 306 272 359 574 572 334 409 328 205 154 126 100 129 154 201 253 176 44 16 84 132 213
9 15 43 41 38 68 4 6 34 4 1 18 4 0 19 9 6 0 0 123 231 200 46 4 14 51 50 207 278 151 124 189 610 507 477 255 155 140 134 95 130 162 143 107 45 70 142 240 301
6 15 28 20 80 38 1 26 10 3 1 7 0 1 27 2 0 0 1 214 357 116 62 53 31 52 6 43 75 44 26 39 46 70 273 288 245 273 161 72 127 46 55 75 83 92 183 175 168
2 23 11 9 2 5 26 20 5 3 25 1 0 2 10 0 0 0 0 195 208 111 47 81 122 54 27 18 7 45 2 24 25 25 76 45 91 192 180 139 123 108 84 63 76 130 87 128 223
17 7 10 24 19 26 24 11 6 5 20 11 6 12 8 1 0 0 0 327 318 213 150 200 150 44 25 36 22 37 6 47 45 19 16 41 55 81 150 140 131 139 83 99 172 42 24 4 0
20 10 1 0 0 24 23 18 11 5 6 28 9 7 3 1 0 0 0 288 232 160 135 159 164 67 14 49 39 32 26 9 2 0 10 12 14 44 71 105 55 24 0 2 10 0 0 0 0
1 1 1 63 3 10 5 14 2 7 8 16 6 3 1 2 0 0 0 31 46 8 4 1 9 43 40 45 25 44 6 1 2 3 14 1 13 62 46 5 0 0 0 0 0 0 0 0 0